Location: ??????????
(42.1626°N, 44.1160°E)
Time: 17:05:20
(UTC+00:00)

Cosmos 1844 - Pass Details

Date: 22 June 2021
Orbit: 823 x 867 km, 70.9° (Epoch: 01 August)

Event Time Altitude Azimuth Distance (km) Brightness Sun altitude
Rises 18:15:18 0° 331° (NNW) 3,372 8.6 -13.5°
Reaches altitude 10° 18:17:46 10° 327° (NNW) 2,438 7.5 -13.8°
Maximum altitude 18:23:11 55° 251° (WSW) 998 4.2 -14.4°
Enters shadow 18:27:36 16° 178° (S) 2,067 5.3 -14.9°
